Flag for Argentina Weather past 2 weeks in Jujuy, Jujuy, Argentina

Now
68 °F

Mostly cloudy.


Feels Like: 68 °F
Forecast: N/A
Wind: 2 mph from Southeast

Location: Jujuy Aerodrome

Current Time: Sep 4, 2015 at 8:58:19 PM

Latest Report: Sep 4, 2015 at 8:00 PM


Visibility: N/A

Pressure: 30.18 "Hg (21.54 "Hg at 2895m altitude)

Humidity: 46%

Dew point: 46 °F

Location of JujuyLocation

Historic Weather in Jujuy — Graph

°F

Jujuy temperature yesterday

Maximum temperature yesterday: 68 °F (at 2:00 PM)
Minimum temperature yesterday: 61 °F (at 5:00 AM)
Average temperature yesterday: 64 °F

Past Weeks' High & Low Weather Summary

 TemperatureHumidityPressure
High97 °F (Aug 31, 4:00 PM)88% (Aug 21, 3:00 AM)30.30 "Hg (Aug 21, 3:00 AM)
Low46 °F (Aug 25, 4:00 AM)11% (Aug 26, 3:00 PM)29.68 "Hg (Aug 22, 2:00 PM)
Average68 °F50%30.02 "Hg
* Reported Aug 20 8:00 PM — Sep 4 8:00 PM, Jujuy, Weather by CustomWeather, © 2015

Note: Actual official high and low records may vary slightly from our data, if they occured in-between our weather recording intervals... More about our weather records

Advertising

Jujuy weather history for previous 24 hours

 ConditionsComfort  
Time TempWeatherWind HumidityBarometerVisibility
8:00 PM
Fri, Sep 4
68 °FMostly cloudy.2 mph46%30.18 "HgN/A
7:00 PM68 °FClear.5 mph46%30.15 "Hg10 mi
4:00 PM73 °FScattered clouds.12 mph29%30.12 "HgN/A
3:00 PM75 °FSunny.6 mph29%30.12 "Hg10 mi
2:00 PM72 °FSunny.8 mph36%30.15 "Hg10 mi
1:00 PM70 °FScattered clouds.5 mph38%30.18 "HgN/A
12:00 PM68 °FPartly sunny.No wind49%30.21 "HgN/A
11:00 AM64 °FScattered clouds.6 mph56%30.24 "HgN/A
10:00 AM61 °FSunny.3 mph59%30.24 "Hg10 mi
9:00 AM59 °FSunny.No wind63%30.24 "Hg10 mi
8:00 AM57 °FMore clouds than sun.No wind72%30.21 "HgN/A
7:00 AM59 °FMore clouds than sun.No wind68%30.21 "HgN/A
5:00 AM59 °FOvercast.No wind63%30.18 "HgN/A
3:00 AM59 °FOvercast.No wind68%30.21 "HgN/A
2:00 AM61 °FOvercast.3 mph72%30.21 "HgN/A
1:00 AM61 °FOvercast.No wind72%30.24 "HgN/A
12:00 AM63 °FOvercast.No wind68%30.24 "HgN/A
11:00 PM
Thu, Sep 3
63 °FOvercast.3 mph68%30.24 "HgN/A
10:00 PM63 °FOvercast.2 mph68%30.24 "HgN/A
9:00 PM64 °FLow clouds.2 mph60%30.21 "HgN/A
8:00 PM64 °FLow clouds.2 mph60%30.18 "HgN/A
Weather by CustomWeather, © 2015

See weather overviewHow to use our weather pages